www.pogodaiklimat.ru

Погода и климат >> Архив погоды >> Россия >> Магаданская область >> Эвенск


ПОГОДА в Эвенске

  • Прогноз погоды в Эвенске
  • Монитор погоды в Эвенске
  • Климат города

АРХИВ ПОГОДЫ в Эвенске

Время (UTC), дата Ветер
(напр.,м/с)
 
Видим.   Явления Облачность Т
(С)
Тd
(С)
f
(%)
Тe
(С)
Тes
(С)
Комфортность P
(гПа)
Po
(гПа)
Тmin
(С)
Tmax
(С)
R
(мм)
R24
(мм)
S
(см)
00 14.01 штиль 0 н/о н/о -18.2 -22.3 70 -18 -18 1005.8 1004.2
03 14.01 штиль 0 н/о н/о -17.9 -21.9 71 -18 -18 1004.2 1002.6
06 14.01 штиль 0 н/о н/о -20.7 -23.9 75 -21 -21 1003.5 1001.9
09 14.01 С 4 50 км 5/0
[Ac lent Ci fib]
-21.8 -24.7 77 -31 -31 опасность
обморожения
1002.9 1001.3 -16.9
12 14.01 штиль 0 н/о н/о -22.9 -26.0 76 -23 -23 1002.4 1000.8
15 14.01 штиль 0 н/о н/о -20.5 -23.9 74 -21 -21 1001.8 1000.2
18 14.01 штиль 0 н/о н/о -21.3 -24.5 75 -21 -21 1001.8 1000.2
21 14.01 С 4 20 км слабый снег 10/6 1000 м
[Sc Ac und]
-20.8 -23.9 76 -30 -30 1001.6 1000.0 -23.1 0.0 127
00 15.01 штиль 0 н/о н/о -22.1 -25.4 74 -22 -22 1000.9 999.3
03 15.01 С 2 н/о н/о -22.2 -25.5 74 -28 -28 1000.2 998.6
06 15.01 С 2 н/о н/о -18.5 -21.8 75 -24 -24 1000.2 998.6
09 15.01 штиль 0 50 км в посл. час снег 9/5 1000 м
[Sc Ac trans]
-19.1 -23.9 66 -19 -19 1000.9 999.3 -17.7 0.0
12 15.01 штиль 0 н/о н/о -21.6 -26.6 64 -22 -22 1001.5 999.9
15 15.01 СЗ 1 н/о н/о -21.0 -25.5 67 -24 -24 1002.2 1000.6
18 15.01 штиль 0 н/о н/о -21.7 -26.8 63 -22 -22 1002.8 1001.2
21 15.01 В 2 10 км слабый снег 10/5 1000 м
[Sc As op]
-22.6 -26.9 68 -29 -29 1004.0 1002.4 -23.1 0.0 127
00 16.01 СЗ 1 н/о н/о -23.6 -29.1 60 -27 -27 1004.6 1003.0 -23.6
03 16.01 СЗ 1 н/о н/о -24.8 -31.2 55 -28 -28 1005.2 1003.6
06 16.01 С 1 н/о н/о -28.4 -32.4 68 -32 -32 опасность
обморожения
1006.0 1004.3
09 16.01 С 2 50 км {снег} 3/0
[Ac lent]
-29.9 -34.4 65 -37 -37 опасность
обморожения
1007.0 1005.3 -22.4 0.0
12 16.01 СЗ 2 н/о н/о -31.5 -36.5 61 -39 -39 опасность
обморожения
1007.7 1006.0
15 16.01 С 1 н/о н/о -31.7 -36.6 62 -36 -36 опасность
обморожения
1008.3 1006.6
18 16.01 С 1 н/о н/о -30.9 -36.4 58 -35 -35 опасность
обморожения
1009.2 1007.5
21 16.01 С 2 50 км ясно -30.4 -36.3 56 -38 -38 опасность
обморожения
1010.4 1008.7 -32.9 127
00 17.01 С 3 н/о н/о -28.6 -35.5 51 -38 -38 опасность
обморожения
1011.5 1009.9
03 17.01 С 3 н/о н/о -27.5 -34.9 49 -37 -37 опасность
обморожения
1012.1 1010.4
06 17.01 С 1 н/о н/о -29.7 -35.8 55 -34 -34 опасность
обморожения
1013.1 1011.5
09 17.01 С 1 50 км 4/0
[Ac trans]
-32.0 -37.1 60 -36 -36 опасность
обморожения
1014.5 1012.8 -27.3
12 17.01 СВ 1 н/о н/о -31.7 -37.0 59 -36 -36 опасность
обморожения
1015.6 1013.9
15 17.01 С 1 н/о н/о -32.6 -38.1 58 -37 -37 опасность
обморожения
1016.2 1014.5
18 17.01 С 2 н/о н/о -33.2 -39.2 55 -41 -41 опасность
обморожения
1017.2 1015.5
21 17.01 С 2 50 км ясно -33.8 -39.4 57 -42 -42 опасность
обморожения
1018.7 1017.0 -34.6 127
00 18.01 СЗ 1 н/о н/о -31.5 -38.2 51 -36 -36 опасность
обморожения
1019.7 1018.0
03 18.01 штиль 0 н/о н/о -30.4 -37.8 48 -30 -30 1020.2 1018.6
06 18.01 С 2 н/о н/о -33.5 -39.4 55 -42 -42 опасность
обморожения
1021.3 1019.5
09 18.01 С 3 50 км ясно -34.1 -39.8 56 -45 -45 опасность
обморожения
1022.5 1020.8 -30.2
12 18.01 С 2 н/о н/о -33.6 -39.5 55 -42 -42 опасность
обморожения
1023.5 1021.8
15 18.01 С 2 н/о н/о -33.4 -39.3 55 -41 -41 опасность
обморожения
1023.7 1022.0
18 18.01 С 3 н/о н/о -33.5 -39.4 55 -44 -44 опасность
обморожения
1024.6 1022.9
21 18.01 С 3 50 км ясно -33.5 -39.3 56 -44 -44 опасность
обморожения
1025.3 1023.6 -34.2 127
00 19.01 штиль 0 н/о н/о -31.3 -38.2 50 -31 -31 опасность
обморожения
1025.9 1024.1
03 19.01 штиль 0 н/о н/о -29.4 -36.8 49 -29 -29 1025.4 1023.7
06 19.01 штиль 0 н/о н/о -31.7 -37.9 54 -32 -32 опасность
обморожения
1025.5 1023.8
09 19.01 штиль 0 50 км ясно -32.4 -38.1 57 -58 -58 опасность
обморожения
1025.9 1024.2 -29.4
12 19.01 штиль 0 н/о н/о -30.6 -36.8 54 -31 -31 опасность
обморожения
1025.0 1023.3
15 19.01 штиль 0 н/о н/о -30.9 -36.7 57 -31 -31 опасность
обморожения
1024.6 1022.9
18 19.01 штиль 0 н/о н/о -30.9 -36.5 58 -31 -31 опасность
обморожения
1024.0 1022.3
21 19.01 С 3 50 км 3/0
[Ac trans]
-28.6 -34.5 57 -38 -38 опасность
обморожения
1023.6 1021.9 -32.5 127
00 20.01 штиль 0 н/о н/о -25.7 -32.5 53 -26 -26 1023.3 1021.7
03 20.01 С 2 н/о н/о -20.1 -28.3 48 -26 -26 1022.1 1020.5
06 20.01 СВ 5 н/о н/о -15.5 -24.4 46 -24 -24 1020.3 1018.7
09 20.01 С 7-11
{13}
4000 м слабый ливневой снег {метель} 10/8 600 м
[Cb cap Ac und]
-13.0 -15.1 84 -23 -23 1019.3 1017.8 -12.5 0.2
12 20.01 С 6-11
{14}
н/о н/о -11.4 -13.7 83 -20 -20 1018.5 1017.0
15 20.01 С 8-13
{16}
н/о н/о -9.6 -12.2 81 -19 -19 1016.7 1015.2
18 20.01 С 7-14
{15}
н/о н/о -7.9 -11.1 78 -17 -17 1016.0 1014.5
21 20.01 С 9-14
{19}
4000 м слабый ливневой снег {метель} 10/8 600 м
[Cb cap Ac und]
-7.8 -9.7 86 -18 -18 1014.5 1013.0 -13.1 0.9 125

 

Местоположение метеостанции Эвенск (Магаданская область, Россия): широта 61.92 долгота 159.20 высота над уровнем моря 12 м.

В архиве по умолчанию представлена погода в Эвенске за последнюю неделю. Архивные данные за месяц целиком и за предыдущие месяцы, начиная с января 2011 года, Вы можете получить, выбрав интересующий диапазон дат из раскрывающегося списка и нажав кнопку "Ввод!".

Внимание! Время в таблицах - всемирное. Для получения местного времени необходимо прибавить поправку, которая в Эвенске равна 11 ч.

Смотрите также архив погоды в соседних городах и на ближайших метеорологических станциях:

Погода в Лабазной (Магаданская область, Россия) (158 км)
Погода в Омсукчане (Магаданская область, Россия) (188 км)
Погода в Шелихова (Магаданская область, Россия) (225 км)
Погода в Чемурнауте (Камчатский край, Россия) (242 км)
Погода в Кегали (Магаданская область, Россия) (275 км)
Погода в Палане (Камчатский край, Россия) (318 км)
Погода в Балыгычане (Магаданская область, Россия) (340 км)
Погода в Верхне-Пенжино (Камчатский край, Россия) (359 км)
Погода в Среднекане (Магаданская область, Россия) (363 км)
Погода в Оссоре (Камчатский край, Россия) (364 км)

Пояснения к столбцам:

Ветер - указаны скорость ветра в м/с - средняя за 10 мин, порывы в срок и между сроками (в фигурных скобках) и направление, откуда дует ветер: С - северный, СВ - северо-восточный, В - восточный, ЮВ - юго-восточный, Ю - южный, ЮЗ - юго-западный, З - западный, СЗ - северо-западный.
Видимость - горизонтальная дальность видимости в метрах или километрах. При видимости от 1 до 10 км при отсутствии осадков обычно наблюдается дымка, при ухудшении видимости до 1 км и менее - туман. В сухую погоду видимость может ухудшаться дымом, пылью или мглою.
Явления - указаны атмосферные явления, наблюдавшиеся в срок или в последний час перед сроком; фигурными скобками обозначены явления, наблюдавшиеся между сроками (за 1-3 часа до срока); квадратными скобками обозначены град или гололедные отложения с указанием их диаметра в мм.
Облачность - указаны через наклонную черту общая и нижняя облачность в баллах и высота нижней границы облаков в метрах; квадратными скобками обозначены формы облаков: Ci - перистые, Cs - перисто-слоистые, Cc - перисто-кучевые, Ac - высококучевые, As - высокослоистые, Sc - слоисто-кучевые, Ns - слоисто-дождевые, Cu - кучевые, Cb - кучево-дождевые. Подробнее классификацию облаков см. в Атласе облаков (PDF).
T - Температура воздуха - температура, измеренная на высоте 2 м над землей.
Td - Температура точки росы - температура, при понижении до которой содержащийся в воздухе водяной пар достигнет насыщения.
f - Относительная влажность воздуха - влажноcть воздуха, измеренная на высоте 2 м над землей.
Te - Эффективная температура - температура, которую ощущает одетый по сезону человек в тени. Характеристика душности погоды. При расчете учитывается влияние влажности воздуха и скорости ветра на теплоощущения человека.
Tes - Эффективная температура на солнце - температура, которую ощущает человек, с поправкой на солнечный нагрев. Характеристика знойности погоды. Зависит от высоты солнца над горизонтом, облачности и скорости ветра. Ночью, в пасмурную погоду, а также при ветре 12 м/с и более поправка равна нулю.
P - Атмосферное давление - приведенное к уровню моря атмосферное давление.
Po - Атмосферное давление - измеренное на уровне метеостанции атмосферное давление.
Tmin - Минимальная температура - минимум температуры воздуха на высоте 2 м над землей.
Tmax - Максимальная температура - максимум температуры воздуха на высоте 2 м над землей.
R - Количество осадков - Количество выпавших осадков за период времени, мм. При наведении курсора мыши на число - период времени, за который выпало указанное количество осадков.
R24 - Количество осадков - Количество выпавших осадков за 24 часа, мм.
S - Снежный покров - Высота снежного покрова, см. При наведении курсора мыши на число - состояние снежного покрова и степень покрытия местности в баллах.